This is the latest recevied weather packets stored in our database for station/object VA3BOO. If no packets are shown the sender has not sent any weather packets the latest 10 day(s).
| Time | Temp. | Humidity | Pressure | Rain* | Wind** | Luminosity | Snow |
|---|---|---|---|---|---|---|---|
| 1777971904 | 13.89° C | 76% | 1000.4 hPa | 0.25 mm | - | 0 W/m² | - |
| 1777971604 | 13.89° C | 74% | 1000.5 hPa | 0 mm | - | 0 W/m² | - |
| 1777971304 | 13.89° C | 74% | 1000.4 hPa | 0 mm | - | 0 W/m² | - |
| 1777971004 | 13.33° C | 76% | 1000.5 hPa | 0 mm | - | 0 W/m² | - |
| 1777970704 | 13.33° C | 76% | 1000.5 hPa | 0 mm | - | 0 W/m² | - |
| 1777970404 | 13.33° C | 75% | 1000.6 hPa | 0 mm | - | 0 W/m² | - |
| 1777970104 | 13.33° C | 75% | 1000.9 hPa | 0 mm | - | 0 W/m² | - |
| 1777969804 | 13.33° C | 75% | 1000.7 hPa | 0 mm | - | 0 W/m² | - |
| 1777969504 | 13.33° C | 75% | 1001 hPa | 0 mm | - | 0 W/m² | - |
| 1777969204 | 12.78° C | 74% | 1001 hPa | 0 mm | - | 0 W/m² | - |
| 1777968904 | 12.78° C | 75% | 1000.8 hPa | 0 mm | - | 0 W/m² | - |
| 1777968604 | 12.78° C | 76% | 1000.9 hPa | 0 mm | - | 0 W/m² | - |
| 1777968304 | 12.78° C | 75% | 1001.1 hPa | 0 mm | - | 0 W/m² | - |
| 1777968004 | 12.78° C | 75% | 1000.9 hPa | 0 mm | - | 0 W/m² | - |
| 1777967704 | 12.22° C | 75% | 1000.9 hPa | 0 mm | - | 0 W/m² | - |
| 1777967404 | 12.22° C | 76% | 1000.9 hPa | 0 mm | - | 0 W/m² | - |
| 1777967104 | 12.22° C | 77% | 1001 hPa | 0 mm | - | 0 W/m² | - |
| 1777966804 | 12.22° C | 78% | 1001.1 hPa | 0 mm | - | 0 W/m² | - |
| 1777966504 | 11.67° C | 80% | 1001.2 hPa | 0 mm | - | 0 W/m² | - |
| 1777966204 | 11.67° C | 82% | 1001.1 hPa | 0 mm | - | 0 W/m² | - |
| 1777965904 | 11.67° C | 82% | 1001 hPa | 0 mm | - | 0 W/m² | - |
| 1777965604 | 11.11° C | 85% | 1001 hPa | 0 mm | - | 0 W/m² | - |
| 1777965304 | 11.67° C | 85% | 1001.1 hPa | 0 mm | - | 0 W/m² | - |
| 1777965004 | 11.67° C | 85% | 1000.9 hPa | 0 mm | - | 0 W/m² | - |
| 1777964704 | 11.67° C | 85% | 1000.9 hPa | 0 mm | - | 0 W/m² | - |
* Rain latest hour (hover to see other rain measurements)
** Current wind speed in m/s (hover to see current wind gust speed)